Regional Weather Roundup
Issued by NWS Huntsville, AL

Home | Current Version | Previous Version | Text Only | Print | Product List | Glossary On
Versions: 1 2 3 4 5 6 7 8 9 10 11 12 13 14 15 16 17 18 19 20 21 22 23 24 25 26 27 28 29 30 31 32 33 34 35 36 37 38 39 40 41 42 43 44 45 46 47 48 49 50
000
ASUS44 KHUN 170610
RWRHUN

WEATHER ROUNDUP FOR THE TENNESSEE VALLEY
NATIONAL WEATHER SERVICE HUNTSVILLE AL
100 AM CDT WED SEP 17 2014

ALZ001>004-170700-
NORTHWEST ALABAMA

CITY           SKY/WX    TMP DP  RH WIND       PRES   REMARKS
COURTLAND HCN    N/A     66 N/A N/A CALM        N/A
RUSSELLVILLE     N/A     66 N/A N/A MISG        N/A
SHOALS AIRPORT CLEAR     67  61  81 CALM      30.06S
6HR MIN TEMP:  66; 6HR MAX TEMP:  76;

SHOALS TVA RES   N/A     66 N/A N/A MISG        N/A
$$

ALZ005>007-016-170700-
NORTH CENTRAL ALABAMA

CITY           SKY/WX    TMP DP  RH WIND       PRES   REMARKS
CULLMAN AG STN   N/A     66 N/A N/A N6          N/A
DECATUR AP     CLEAR     65  62  90 N5        30.04F
6HR MIN TEMP:  65; 6HR MAX TEMP:  77;

HUNTSVILLE AP  CLEAR     67  63  87 CALM      30.03F FOG
6HR MIN TEMP:  67; 6HR MAX TEMP:  79;

HUN NWS/UAH      N/A     67  61  80 N5          N/A
MERIDIANVILLE  MOCLDY    63  59  88 N3        30.04F FOG
VINEMONT AP    FAIR      65  64  95 N3        30.06S FOG
$$

ALZ008>010-170700-
NORTHEAST ALABAMA

CITY           SKY/WX    TMP DP  RH WIND       PRES   REMARKS
ALBERTVILLE    CLOUDY    68  68 100 N6        30.02F
FORT PAYNE     PTCLDY    64  63  94 CALM      30.02S FOG
SCOTTSBORO AP    N/A     66  66 100 CALM      30.04S FOG
SCOTTSBORO HCN   N/A     66 N/A N/A MISG        N/A
VALLEY HEAD      N/A     68 N/A N/A MISG        N/A
$$

TNZ076-096-097-170700-
SOUTHEASTERN MIDDLE TENNESSEE

CITY           SKY/WX    TMP DP  RH WIND       PRES   REMARKS
FAYETTEVILLE   PTCLDY    63  61  94 N5        30.05S
TULLAHOMA      CLEAR     61  59  94 CALM      30.07S
WINCHESTER     CLEAR     63  63 100 CALM      30.05F
$$

...SURROUNDING SITES...

CITY           SKY/WX    TMP DP  RH WIND       PRES   REMARKS
ATLANTA        PTCLDY    72  68  87 NW7       30.00S
ANNISTON       CLEAR     70  69  97 CALM      30.01S
BIRMINGHAM     CLEAR     72  68  87 N3        30.03F
CHATTANOOGA    MOCLDY    69  62  78 N8        30.03S
CORINTH        FAIR      64  61  88 CALM      30.05F
DALTON         CLEAR     66  66 100 N5        30.01F
GADSDEN        PTCLDY    70  66  88 N5        30.02S
GOLDEN TRNGL   PTCLDY    73  66  78 N8        30.02F
HALEYVILLE     CLOUDY    67  67 100 N5        30.07S
JACKSON TN     CLOUDY    64  61  90 CALM      30.07F
LEWISBURG      CLOUDY    62  59  90 CALM      30.06F
MEMPHIS        CLEAR     67  60  78 NE6       30.05F
MURFREESBORO   FAIR      60  57  89 NW5       30.05F
NASHVILLE      PTCLDY    60  55  83 NW6       30.07S
OXFORD MS      FAIR      66  64  94 NE5       30.06
ROME           PTCLDY    69  66  90 N3        30.00F
SAVANNAH       CLOUDY    63  63 100 CALM      30.06F
TUPELO         PTCLDY    68  65  90 NE9       30.03F
TUSCALOOSA     PTCLDY    72  69  90 CALM      30.00S
$$

...GULF COAST WEATHER...

CITY           SKY/WX    TMP DP  RH WIND       PRES   REMARKS
GULFPORT       CLOUDY    74  71  91 CALM      29.96F
PASCAGOULA     CLOUDY    73  72  96 CALM      29.98S
MOBILE         CLOUDY    70  70 100 W3        29.98F
GULF SHORES    MOCLDY    72  72  99 CALM      29.96F
PENSACOLA      MOCLDY    73  73 100 W5        29.95F
DESTIN         CLOUDY    75  72  90 CALM      29.96F
PANAMA CITY    MOCLDY    75  75 100 E2        29.96F
APPALACHICOLA  CLOUDY    77  72  84 CALM      29.95F
$$



USA.gov is the U.S. government's official web portal to all federal, state and local government web resources and services.